This demonstration page uses our WeatherBlox Daily Observations layout. Learn more.

Left ArrowRight Arrow

Hourly Observations for November 11, 2016

Temp ( °F °C ) Dew Point ( °F °C ) Humidity (%) Winds ( mph kmh ) Pressure ( in mb ) Visibility ( mi km ) Precip ( " mm )
12:53 am 00:53 Hazy 39 3.9 33 0.6 79 79 Calm 30.13 1020 6 10 0.00 0.00
1:53 am 01:53 Hazy 39 3.9 34 1.1 82 82 Calm 30.13 1020 6 10 0.00 0.00
2:53 am 02:53 Clear 37 2.8 32 0 82 82 Calm 30.11 1020 7 11 0.00 0.00
3:53 am 03:53 Clear 35 1.7 31 -0.6 85 85 Calm 30.10 1019 7 11 0.00 0.00
4:53 am 04:53 Clear 37 2.8 32 0 82 82 Calm 30.11 1020 9 14 0.00 0.00
5:53 am 05:53 Clear 40 4.4 31 -0.6 70 70 Calm 30.10 1019 9 14 0.00 0.00
6:53 am 06:53 Clear 36 2.2 31 -0.6 82 82 Calm 30.11 1020 9 14 0.00 0.00
7:53 am 07:53 Sunny 46 7.8 32 0 58 58 S 3 6 30.10 1019 10 16 0.00 0.00
8:53 am 08:53 Sunny 50 10 35 1.7 57 57 Calm 30.11 1020 10 16 0.00 0.00
9:53 am 09:53 Sunny 58 14.4 33 0.6 39 39 VRB 6 9 30.10 1019 10 16 0.00 0.00
10:53 am 10:53 Sunny 61 16.1 34 1.1 36 36 NNW 9 15 30.09 1019 10 16 0.00 0.00
11:53 am 11:53 Sunny with Light Rain 64 17.8 34 1.1 33 33 NW 15 24 30.08 1019 10 16 0.00 0.03
12:53 pm 12:53 Sunny with Light Rain 66 18.9 33 0.6 29 29 NNW 14 22 30.04 1017 10 16 0.00 0.03
1:53 pm 13:53 Sunny with Light Rain 68 20 32 0 26 26 NW 8 13 30.02 1017 10 16 0.00 0.03
2:53 pm 14:53 Sunny with Light Rain 68 20 31 -0.6 25 25 NW 9 15 30.00 1016 10 16 0.00 0.03
3:53 pm 15:53 Sunny with Light Rain 67 19.4 32 0 27 27 WNW 9 15 30.01 1016 10 16 0.00 0.03
4:53 pm 16:53 Sunny 65 18.3 33 0.6 31 31 WNW 8 13 30.01 1016 10 16 0.00 0.03
5:53 pm 17:53 Clear 63 17.2 34 1.1 34 34 Calm 30.03 1017 10 16 0.00 0.00
6:53 pm 18:53 Clear 58 14.4 37 2.8 46 46 Calm 30.05 1018 10 16 0.00 0.00
7:53 pm 19:53 Clear 58 14.4 37 2.8 46 46 NW 3 6 30.05 1018 10 16 0.00 0.00
8:53 pm 20:53 Clear 58 14.4 37 2.8 46 46 NW 6 9 30.06 1018 10 16 0.00 0.00
9:53 pm 21:53 Clear 60 15.6 38 3.3 44 44 N 7 11 30.06 1018 10 16 0.00 0.00
10:53 pm 22:53 Clear 59 15 39 3.9 48 48 N 5 7 30.06 1018 10 16 0.00 0.00
11:53 pm 23:53 Clear 58 14.4 39 3.9 50 50 N 5 7 30.08 1019 10 16 0.00 0.00

Powered by AerisWeather